TOM7KL EGNT-LCLK

Flight info

Callsign TOM7KL
Flight time 4h 32m
Altitude 35000
Route NATEB DCT GIVEM DCT SURAT DCT PETIL DCT GARKA DCT KUGAL DCT HAM DCT BUMIL DCT MILGU DCT OMELO DCT EVIKU DCT NAVTI DCT BEGLA DCT SVR DCT BABIT DCT NISVA DCT NIKTI/N0459F370 DCT LMO DCT RIKSO UP14 ZAFLE DCT BENEM DCT EVENO DCT DASNI M601 BONEK
Aircraft B738/M-SDE2E3FGHIRWXY/LB1

Departure

Time 2026-05-07 14:51
Airport Newcastle International Airport (EGNT)

Arrival

Time 2026-05-07 19:23
Airport Larnaca International Airport (LCLK)
Time Latitude Longitude Altitude Speed Heading
2026-05-07 14:16 55.03663 -1.70582 259 ft 0 kts 318°
2026-05-07 14:39 55.03661 -1.70579 259 ft 3 kts 319°
2026-05-07 14:39 55.03646 -1.70555 259 ft 3 kts 318°
2026-05-07 14:39 55.03633 -1.70535 260 ft 3 kts 310°
2026-05-07 14:40 55.03623 -1.70507 260 ft 3 kts 280°
2026-05-07 14:40 55.03622 -1.70505 260 ft 0 kts 278°
2026-05-07 14:42 55.03623 -1.70507 260 ft 1 kts 283°
2026-05-07 14:42 55.03647 -1.70498 259 ft 7 kts 40°
2026-05-07 14:42 55.03700 -1.70438 257 ft 11 kts 16°
2026-05-07 14:43 55.03773 -1.70394 254 ft 12 kts 53°
2026-05-07 14:43 55.03778 -1.70256 254 ft 12 kts 94°
2026-05-07 14:43 55.03773 -1.70117 255 ft 12 kts 91°
2026-05-07 14:43 55.03775 -1.69964 256 ft 13 kts 86°
2026-05-07 14:44 55.03788 -1.69808 257 ft 13 kts 81°
2026-05-07 14:44 55.03805 -1.69659 256 ft 13 kts 78°
2026-05-07 14:44 55.03833 -1.69517 255 ft 12 kts 65°
2026-05-07 14:44 55.03868 -1.69382 254 ft 12 kts 65°
2026-05-07 14:45 55.03904 -1.69249 252 ft 13 kts 66°
2026-05-07 14:45 55.03943 -1.69097 251 ft 14 kts 66°
2026-05-07 14:45 55.03983 -1.68941 250 ft 14 kts 65°
2026-05-07 14:45 55.04024 -1.68796 248 ft 13 kts 65°
2026-05-07 14:46 55.04062 -1.68653 247 ft 13 kts 65°
2026-05-07 14:46 55.04099 -1.68515 245 ft 12 kts 65°
2026-05-07 14:46 55.04135 -1.68380 244 ft 12 kts 65°
2026-05-07 14:46 55.04170 -1.68248 242 ft 12 kts 65°
2026-05-07 14:47 55.04204 -1.68120 241 ft 11 kts 65°
2026-05-07 14:47 55.04237 -1.67997 240 ft 11 kts 65°
2026-05-07 14:47 55.04269 -1.67875 238 ft 11 kts 65°
2026-05-07 14:47 55.04300 -1.67756 237 ft 11 kts 65°
2026-05-07 14:48 55.04330 -1.67643 238 ft 10 kts 70°
2026-05-07 14:48 55.04331 -1.67521 235 ft 10 kts 94°
2026-05-07 14:48 55.04313 -1.67399 237 ft 11 kts 127°
2026-05-07 14:48 55.04244 -1.67366 234 ft 10 kts 186°
2026-05-07 14:49 55.04204 -1.67431 236 ft 0 kts 244°
2026-05-07 14:50 55.04204 -1.67432 236 ft 1 kts 244°
2026-05-07 14:50 55.04159 -1.67600 237 ft 48 kts 245°
2026-05-07 14:50 55.03911 -1.68534 247 ft 121 kts 245°
2026-05-07 14:50 55.03444 -1.70172 352 ft 174 kts 242°
2026-05-07 14:51 55.02877 -1.72203 926 ft 197 kts 243°
2026-05-07 14:51 55.02316 -1.74358 1887 ft 194 kts 244°
2026-05-07 14:51 55.01751 -1.76530 2589 ft 199 kts 245°
2026-05-07 14:51 55.01408 -1.78872 3146 ft 208 kts 271°
2026-05-07 14:52 55.01980 -1.81310 3431 ft 235 kts 309°
2026-05-07 14:52 55.03467 -1.82805 3598 ft 268 kts 345°
2026-05-07 14:52 55.05447 -1.82611 3520 ft 305 kts 18°
2026-05-07 14:52 55.07252 -1.80785 4563 ft 297 kts 41°
2026-05-07 14:53 55.08408 -1.78014 5854 ft 280 kts 68°
2026-05-07 14:53 55.09117 -1.74834 6690 ft 284 kts 72°
2026-05-07 14:53 55.09764 -1.71545 7416 ft 289 kts 73°
2026-05-07 14:53 55.10403 -1.68194 8178 ft 293 kts 73°
2026-05-07 14:54 55.11052 -1.64775 8908 ft 298 kts 73°
2026-05-07 14:54 55.11717 -1.61299 9574 ft 306 kts 73°
2026-05-07 14:54 55.12397 -1.57761 10324 ft 309 kts 73°
2026-05-07 14:54 55.13107 -1.54083 10603 ft 330 kts 73°
2026-05-07 14:55 55.13868 -1.50143 10799 ft 352 kts 72°
2026-05-07 14:55 55.14667 -1.46016 10964 ft 373 kts 72°
2026-05-07 14:55 55.15520 -1.41616 11166 ft 391 kts 72°
2026-05-07 14:55 55.16408 -1.37040 11668 ft 399 kts 72°
2026-05-07 14:56 55.17299 -1.32441 12360 ft 402 kts 72°
2026-05-07 14:56 55.18202 -1.27775 13067 ft 404 kts 72°
2026-05-07 14:56 55.19107 -1.23090 13742 ft 408 kts 73°
2026-05-07 14:56 55.20018 -1.18357 14299 ft 412 kts 73°
2026-05-07 14:57 55.20931 -1.13600 14939 ft 413 kts 73°
2026-05-07 14:57 55.21847 -1.08814 15520 ft 416 kts 73°
2026-05-07 14:57 55.22768 -1.03991 16190 ft 416 kts 73°
2026-05-07 14:57 55.23683 -0.99186 16906 ft 416 kts 74°
2026-05-07 14:58 55.24604 -0.94337 17401 ft 421 kts 73°
2026-05-07 14:58 55.25521 -0.89499 17932 ft 425 kts 74°
2026-05-07 14:58 55.26461 -0.84533 18410 ft 430 kts 73°
2026-05-07 14:58 55.27395 -0.79579 19045 ft 428 kts 73°
2026-05-07 14:59 55.28335 -0.74581 19462 ft 433 kts 75°
2026-05-07 14:59 55.29276 -0.69551 19859 ft 438 kts 73°
2026-05-07 14:59 55.30232 -0.64415 20162 ft 445 kts 74°
2026-05-07 14:59 55.31193 -0.59248 20617 ft 447 kts 74°
2026-05-07 15:00 55.32163 -0.54028 20943 ft 453 kts 74°
2026-05-07 15:00 55.33142 -0.48753 21432 ft 454 kts 74°
2026-05-07 15:00 55.34122 -0.43460 21816 ft 458 kts 74°
2026-05-07 15:00 55.35103 -0.38143 22337 ft 457 kts 74°
2026-05-07 15:01 55.36089 -0.32786 22763 ft 460 kts 73°
2026-05-07 15:01 55.37072 -0.27436 23247 ft 461 kts 74°
2026-05-07 15:01 55.38047 -0.22105 23569 ft 465 kts 74°
2026-05-07 15:01 55.39049 -0.16605 23914 ft 467 kts 74°
2026-05-07 15:02 55.40030 -0.11205 24225 ft 470 kts 73°
2026-05-07 15:02 55.41024 -0.05723 24626 ft 470 kts 74°
2026-05-07 15:02 55.42016 -0.00228 24937 ft 472 kts 73°
2026-05-07 15:02 55.42973 0.05084 25216 ft 475 kts 74°
2026-05-07 15:03 55.43635 0.08767 25408 ft 477 kts 74°
2026-05-07 15:03 55.44637 0.14358 25605 ft 481 kts 73°
2026-05-07 15:03 55.45644 0.19983 25929 ft 482 kts 74°
2026-05-07 15:03 55.46358 0.23985 26129 ft 483 kts 73°
2026-05-07 15:04 55.47232 0.29064 26447 ft 483 kts 76°
2026-05-07 15:04 55.48128 0.34774 26772 ft 484 kts 77°
2026-05-07 15:04 55.48973 0.40450 27155 ft 483 kts 76°
2026-05-07 15:04 55.49813 0.46189 27535 ft 482 kts 77°
2026-05-07 15:05 55.50649 0.51910 28048 ft 479 kts 77°
2026-05-07 15:05 55.51488 0.57605 28372 ft 479 kts 77°
2026-05-07 15:05 55.52329 0.63284 28843 ft 477 kts 76°
2026-05-07 15:05 55.53174 0.68957 29161 ft 478 kts 77°
2026-05-07 15:06 55.54013 0.74591 29538 ft 478 kts 76°
2026-05-07 15:06 55.54859 0.80281 29945 ft 477 kts 76°
2026-05-07 15:06 55.55699 0.85947 30311 ft 475 kts 76°
2026-05-07 15:06 55.56531 0.91588 30609 ft 475 kts 77°
2026-05-07 15:07 55.57359 0.97220 31066 ft 471 kts 77°
2026-05-07 15:07 55.58147 1.02595 31372 ft 470 kts 77°
2026-05-07 15:07 55.58965 1.08203 31629 ft 471 kts 77°
2026-05-07 15:07 55.59778 1.13801 31951 ft 469 kts 77°
2026-05-07 15:08 55.60572 1.19283 32498 ft 462 kts 77°
2026-05-07 15:08 55.61362 1.24760 32859 ft 461 kts 77°
2026-05-07 15:08 55.62156 1.30280 33044 ft 462 kts 77°
2026-05-07 15:08 55.62947 1.35799 33283 ft 463 kts 77°
2026-05-07 15:09 55.63734 1.41318 33662 ft 460 kts 77°
2026-05-07 15:09 55.64513 1.46790 34039 ft 457 kts 78°
2026-05-07 15:09 55.65288 1.52261 34242 ft 458 kts 77°
2026-05-07 15:09 55.66061 1.57742 34396 ft 459 kts 78°
2026-05-07 15:10 55.66834 1.63238 34537 ft 461 kts 77°
2026-05-07 15:10 55.67608 1.68752 34746 ft 460 kts 77°
2026-05-07 15:10 55.68378 1.74256 34956 ft 460 kts 77°
2026-05-07 15:10 55.69143 1.79752 35060 ft 458 kts 77°
2026-05-07 15:11 55.70653 1.90648 35094 ft 456 kts 77°
2026-05-07 15:11 55.72141 2.01472 35110 ft 461 kts 78°
2026-05-07 15:12 55.73660 2.12603 35113 ft 465 kts 78°
2026-05-07 15:12 55.75182 2.23829 35106 ft 468 kts 78°
2026-05-07 15:13 55.76675 2.34923 35094 ft 461 kts 77°
2026-05-07 15:13 55.78150 2.45974 35110 ft 460 kts 77°
2026-05-07 15:14 55.79618 2.57055 35116 ft 461 kts 78°
2026-05-07 15:14 55.81080 2.68173 35115 ft 462 kts 78°
2026-05-07 15:15 55.82534 2.79318 35114 ft 463 kts 78°
2026-05-07 15:15 55.83980 2.90481 35118 ft 463 kts 78°
2026-05-07 15:16 55.85392 3.01469 35116 ft 463 kts 78°
2026-05-07 15:16 55.86810 3.12591 35116 ft 463 kts 78°
2026-05-07 15:17 55.88224 3.23766 35123 ft 462 kts 78°
2026-05-07 15:17 55.89629 3.34951 35120 ft 462 kts 78°
2026-05-07 15:18 55.91021 3.46116 35124 ft 461 kts 78°
2026-05-07 15:18 55.91821 3.57405 35137 ft 458 kts 88°
2026-05-07 15:19 55.91987 3.68775 35127 ft 458 kts 89°
2026-05-07 15:19 55.92141 3.80035 35127 ft 457 kts 89°
2026-05-07 15:20 55.92336 3.91364 35128 ft 457 kts 89°
2026-05-07 15:20 55.92541 4.02503 35125 ft 457 kts 88°
2026-05-07 15:21 55.92740 4.13813 35131 ft 457 kts 89°
2026-05-07 15:21 55.92928 4.25144 35125 ft 457 kts 89°
2026-05-07 15:22 55.93104 4.36499 35131 ft 458 kts 89°
2026-05-07 15:22 55.93270 4.47852 35128 ft 458 kts 89°
2026-05-07 15:23 55.93427 4.59238 35129 ft 459 kts 89°
2026-05-07 15:23 55.93571 4.70533 35134 ft 459 kts 89°
2026-05-07 15:24 55.93708 4.81932 35133 ft 460 kts 89°
2026-05-07 15:24 55.93786 4.93346 35127 ft 460 kts 94°
2026-05-07 15:25 55.93277 4.98956 35129 ft 459 kts 106°
2026-05-07 15:25 55.92236 5.04113 35127 ft 458 kts 116°
2026-05-07 15:25 55.88840 5.13671 35135 ft 457 kts 126°
2026-05-07 15:26 55.85195 5.22965 35131 ft 457 kts 125°
2026-05-07 15:26 55.81612 5.32300 35127 ft 457 kts 125°
2026-05-07 15:27 55.78058 5.41602 35127 ft 457 kts 125°
2026-05-07 15:27 55.74656 5.51146 35128 ft 458 kts 122°
2026-05-07 15:28 55.71397 5.60867 35135 ft 458 kts 121°
2026-05-07 15:28 55.68130 5.70576 35129 ft 458 kts 121°
2026-05-07 15:29 55.64860 5.80165 35129 ft 458 kts 122°
2026-05-07 15:29 55.61555 5.89773 35120 ft 457 kts 122°
2026-05-07 15:30 55.58239 5.99366 35133 ft 456 kts 122°
2026-05-07 15:30 55.54982 6.08756 35133 ft 456 kts 122°
2026-05-07 15:31 55.51662 6.18292 35123 ft 455 kts 122°
2026-05-07 15:31 55.48339 6.27800 35135 ft 454 kts 122°
2026-05-07 15:32 55.45027 6.37237 35134 ft 454 kts 122°
2026-05-07 15:32 55.41697 6.46693 35119 ft 454 kts 122°
2026-05-07 15:33 55.38358 6.56136 35120 ft 454 kts 122°
2026-05-07 15:33 55.35009 6.65570 35127 ft 454 kts 122°
2026-05-07 15:34 55.31654 6.74988 35135 ft 455 kts 121°
2026-05-07 15:34 55.28288 6.84396 35118 ft 455 kts 122°
2026-05-07 15:35 55.24935 6.93732 35123 ft 455 kts 122°
2026-05-07 15:35 55.21610 7.02958 35128 ft 455 kts 122°
2026-05-07 15:36 55.18215 7.12341 35128 ft 455 kts 122°
2026-05-07 15:36 55.14820 7.21690 35124 ft 455 kts 122°
2026-05-07 15:37 55.11445 7.30950 35123 ft 454 kts 122°
2026-05-07 15:37 55.08041 7.40251 35126 ft 454 kts 122°
2026-05-07 15:38 55.04631 7.49541 35124 ft 454 kts 122°
2026-05-07 15:38 55.01215 7.58810 35125 ft 454 kts 122°
2026-05-07 15:39 54.97504 7.67693 35129 ft 454 kts 129°
2026-05-07 15:39 54.93386 7.76055 35120 ft 454 kts 130°
2026-05-07 15:40 54.89260 7.84340 35112 ft 453 kts 129°
2026-05-07 15:40 54.85184 7.92619 35113 ft 453 kts 129°
2026-05-07 15:41 54.81174 8.00808 35116 ft 453 kts 129°
2026-05-07 15:41 54.77091 8.09138 35110 ft 453 kts 129°
2026-05-07 15:42 54.73003 8.17449 35116 ft 453 kts 129°
2026-05-07 15:42 54.68912 8.25733 35113 ft 453 kts 129°
2026-05-07 15:43 54.64817 8.33994 35111 ft 452 kts 129°
2026-05-07 15:43 54.60725 8.42220 35109 ft 452 kts 129°
2026-05-07 15:44 54.56654 8.50381 35096 ft 451 kts 129°
2026-05-07 15:44 54.52528 8.58621 35099 ft 451 kts 129°
2026-05-07 15:45 54.48452 8.66735 35088 ft 451 kts 129°
2026-05-07 15:45 54.44351 8.74870 35105 ft 450 kts 129°
2026-05-07 15:46 54.38183 8.87058 35084 ft 450 kts 130°
2026-05-07 15:47 54.34070 8.95152 35101 ft 450 kts 130°
2026-05-07 15:47 54.30024 9.03087 35096 ft 450 kts 130°
2026-05-07 15:48 54.25896 9.11156 35081 ft 450 kts 130°
2026-05-07 15:48 54.21767 9.19200 35089 ft 450 kts 130°
2026-05-07 15:49 54.17654 9.27187 35080 ft 451 kts 130°
2026-05-07 15:49 54.13507 9.35215 35082 ft 451 kts 130°
2026-05-07 15:50 54.09343 9.43251 35063 ft 452 kts 131°
2026-05-07 15:50 54.05169 9.51274 35076 ft 453 kts 131°
2026-05-07 15:51 54.01684 9.57953 35085 ft 454 kts 131°
2026-05-07 15:51 53.97481 9.65987 35084 ft 456 kts 131°
2026-05-07 15:52 53.93253 9.74043 35070 ft 457 kts 131°
2026-05-07 15:52 53.89017 9.82086 35083 ft 458 kts 131°
2026-05-07 15:53 53.84765 9.90135 35091 ft 458 kts 132°
2026-05-07 15:53 53.80505 9.98170 35066 ft 458 kts 132°
2026-05-07 15:54 53.76364 10.05958 35083 ft 458 kts 132°
2026-05-07 15:54 53.72097 10.13962 35070 ft 458 kts 133°
2026-05-07 15:55 53.67858 10.21892 35080 ft 458 kts 132°
2026-05-07 15:55 53.63680 10.29971 35077 ft 457 kts 131°
2026-05-07 15:56 53.59528 10.38092 35087 ft 456 kts 131°
2026-05-07 15:56 53.55367 10.46178 35067 ft 456 kts 131°
2026-05-07 15:57 53.51197 10.54230 35083 ft 456 kts 131°
2026-05-07 15:57 53.47048 10.62206 35072 ft 455 kts 131°
2026-05-07 15:58 53.42873 10.70207 35066 ft 455 kts 131°
2026-05-07 15:58 53.38694 10.78189 35074 ft 455 kts 131°
2026-05-07 15:59 53.34505 10.86168 35075 ft 456 kts 131°
2026-05-07 15:59 53.30301 10.94149 35051 ft 457 kts 131°
2026-05-07 16:00 53.26160 11.01984 35072 ft 457 kts 131°
2026-05-07 16:00 53.21974 11.09879 35078 ft 457 kts 131°
2026-05-07 16:01 53.17750 11.17826 35067 ft 458 kts 132°
2026-05-07 16:01 53.13515 11.25763 35060 ft 458 kts 132°
2026-05-07 16:02 53.08741 11.32702 35079 ft 456 kts 146°
2026-05-07 16:02 53.03518 11.38701 35062 ft 456 kts 146°
2026-05-07 16:03 52.98301 11.44678 35068 ft 456 kts 146°
2026-05-07 16:03 52.93126 11.50667 35063 ft 456 kts 145°
2026-05-07 16:04 52.87931 11.56702 35069 ft 456 kts 146°
2026-05-07 16:04 52.82728 11.62735 35061 ft 456 kts 146°
2026-05-07 16:05 52.77535 11.68737 35067 ft 455 kts 146°
2026-05-07 16:05 52.72338 11.74726 35064 ft 455 kts 146°
2026-05-07 16:06 52.67155 11.80679 35060 ft 454 kts 146°
2026-05-07 16:06 52.61972 11.86613 35059 ft 453 kts 146°
2026-05-07 16:07 52.56798 11.92522 35065 ft 453 kts 146°
2026-05-07 16:07 52.51603 11.98436 35056 ft 454 kts 146°
2026-05-07 16:08 52.46533 12.04191 35062 ft 454 kts 146°
2026-05-07 16:08 52.41343 12.10066 35062 ft 454 kts 146°
2026-05-07 16:09 52.36139 12.15939 35056 ft 454 kts 146°
2026-05-07 16:09 52.30932 12.21799 35061 ft 454 kts 146°
2026-05-07 16:10 52.25710 12.27658 35055 ft 456 kts 146°
2026-05-07 16:10 52.20480 12.33509 35056 ft 456 kts 146°
2026-05-07 16:11 52.15273 12.39318 35051 ft 456 kts 146°
2026-05-07 16:11 52.10040 12.45139 35071 ft 456 kts 146°
2026-05-07 16:12 52.04786 12.50967 35054 ft 458 kts 147°
2026-05-07 16:12 51.99535 12.56774 35053 ft 457 kts 147°
2026-05-07 16:13 51.94273 12.62577 35052 ft 457 kts 147°
2026-05-07 16:13 51.89019 12.68354 35049 ft 455 kts 147°
2026-05-07 16:14 51.83816 12.74060 35055 ft 454 kts 147°
2026-05-07 16:14 51.78558 12.79809 35058 ft 453 kts 147°
2026-05-07 16:15 51.73376 12.85459 35048 ft 452 kts 147°
2026-05-07 16:15 51.68167 12.91123 35054 ft 451 kts 147°
2026-05-07 16:16 51.62954 12.96776 35052 ft 451 kts 147°
2026-05-07 16:16 51.57824 13.02325 35051 ft 451 kts 147°
2026-05-07 16:17 51.52869 13.08542 35051 ft 453 kts 141°
2026-05-07 16:17 51.48075 13.15140 35050 ft 454 kts 141°
2026-05-07 16:18 51.43296 13.21672 35049 ft 455 kts 141°
2026-05-07 16:18 51.38446 13.28200 35046 ft 456 kts 142°
2026-05-07 16:19 51.33572 13.34706 35042 ft 456 kts 142°
2026-05-07 16:19 51.28688 13.41202 35032 ft 456 kts 142°
2026-05-07 16:20 51.23807 13.47678 35017 ft 456 kts 142°
2026-05-07 16:20 51.18918 13.54148 35020 ft 456 kts 142°
2026-05-07 16:21 51.14033 13.60595 35025 ft 456 kts 142°
2026-05-07 16:21 51.09149 13.67022 35025 ft 455 kts 142°
2026-05-07 16:22 51.04271 13.73424 35021 ft 455 kts 142°
2026-05-07 16:22 50.99392 13.79809 35023 ft 454 kts 143°
2026-05-07 16:23 50.94553 13.86124 35023 ft 453 kts 142°
2026-05-07 16:23 50.89684 13.92462 35011 ft 453 kts 143°
2026-05-07 16:24 50.84812 13.98786 35011 ft 452 kts 143°
2026-05-07 16:24 50.80149 14.05186 35015 ft 453 kts 140°
2026-05-07 16:25 50.75512 14.11971 35012 ft 454 kts 139°
2026-05-07 16:25 50.70866 14.18739 34993 ft 454 kts 140°
2026-05-07 16:26 50.66202 14.25454 34998 ft 454 kts 140°
2026-05-07 16:26 50.61553 14.32107 34991 ft 454 kts 140°
2026-05-07 16:27 50.56867 14.38793 34993 ft 455 kts 140°
2026-05-07 16:27 50.52172 14.45480 34980 ft 455 kts 140°
2026-05-07 16:28 50.47475 14.52148 34974 ft 455 kts 141°
2026-05-07 16:28 50.42483 14.58088 34981 ft 449 kts 150°
2026-05-07 16:29 50.37221 14.63351 34974 ft 448 kts 150°
2026-05-07 16:29 50.31966 14.68585 34977 ft 448 kts 150°
2026-05-07 16:30 50.26720 14.73875 34968 ft 449 kts 150°
2026-05-07 16:30 50.21473 14.79194 34966 ft 450 kts 150°
2026-05-07 16:31 50.16253 14.84481 34966 ft 450 kts 150°
2026-05-07 16:31 50.10997 14.89789 34958 ft 450 kts 150°
2026-05-07 16:32 50.05746 14.95077 34961 ft 449 kts 150°
2026-05-07 16:32 50.00598 15.00247 34968 ft 448 kts 150°
2026-05-07 16:33 49.95366 15.05486 34966 ft 447 kts 150°
2026-05-07 16:33 49.90134 15.10712 34967 ft 447 kts 150°
2026-05-07 16:34 49.84944 15.15883 34962 ft 445 kts 150°
2026-05-07 16:34 49.79698 15.21097 34950 ft 445 kts 150°
2026-05-07 16:35 49.74487 15.26261 34961 ft 444 kts 150°
2026-05-07 16:35 49.69314 15.31374 34957 ft 444 kts 150°
2026-05-07 16:36 49.64102 15.36514 34956 ft 444 kts 150°
2026-05-07 16:36 49.58882 15.41647 34948 ft 445 kts 151°
2026-05-07 16:37 49.53658 15.46771 34949 ft 445 kts 151°
2026-05-07 16:37 49.48436 15.51881 34955 ft 444 kts 151°
2026-05-07 16:38 49.43218 15.56973 34959 ft 444 kts 151°
2026-05-07 16:38 49.38881 15.61196 34947 ft 444 kts 151°
2026-05-07 16:39 49.32809 15.67093 34937 ft 444 kts 151°
2026-05-07 16:39 49.27598 15.72140 34951 ft 444 kts 151°
2026-05-07 16:40 49.23221 15.76370 34946 ft 444 kts 152°
2026-05-07 16:40 49.18031 15.81373 34935 ft 444 kts 152°
2026-05-07 16:41 49.12797 15.86406 34945 ft 444 kts 152°
2026-05-07 16:41 49.07553 15.91436 34936 ft 445 kts 152°
2026-05-07 16:42 49.02307 15.96456 34957 ft 445 kts 152°
2026-05-07 16:42 48.97169 16.01360 34922 ft 446 kts 152°
2026-05-07 16:43 48.91938 16.06341 34937 ft 446 kts 152°
2026-05-07 16:43 48.86672 16.11342 34945 ft 446 kts 152°
2026-05-07 16:44 48.81395 16.16344 34929 ft 447 kts 153°
2026-05-07 16:44 48.76110 16.21345 34942 ft 448 kts 152°
2026-05-07 16:45 48.70868 16.26484 34944 ft 449 kts 151°
2026-05-07 16:45 48.65640 16.31675 34931 ft 449 kts 152°
2026-05-07 16:46 48.60408 16.36843 34953 ft 449 kts 152°
2026-05-07 16:46 48.55165 16.41992 34935 ft 450 kts 152°
2026-05-07 16:47 48.49942 16.47101 34945 ft 450 kts 152°
2026-05-07 16:47 48.44675 16.52240 34963 ft 451 kts 152°
2026-05-07 16:48 48.39401 16.57373 34970 ft 451 kts 152°
2026-05-07 16:48 48.34148 16.62476 34966 ft 448 kts 153°
2026-05-07 16:49 48.28913 16.67548 34978 ft 446 kts 153°
2026-05-07 16:49 48.23709 16.72576 34982 ft 444 kts 153°
2026-05-07 16:50 48.18562 16.77538 34989 ft 442 kts 153°
2026-05-07 16:50 48.13391 16.82509 34986 ft 441 kts 153°
2026-05-07 16:51 48.08234 16.87455 34985 ft 440 kts 153°
2026-05-07 16:51 48.03077 16.92390 34962 ft 439 kts 153°
2026-05-07 16:52 47.97947 16.97287 34967 ft 439 kts 153°
2026-05-07 16:52 47.92898 17.02096 34970 ft 439 kts 153°
2026-05-07 16:53 47.87732 17.07007 34972 ft 440 kts 153°
2026-05-07 16:53 47.82559 17.11914 34930 ft 441 kts 153°
2026-05-07 16:54 47.77494 17.17005 34944 ft 443 kts 152°
2026-05-07 16:54 47.72433 17.22237 34961 ft 443 kts 151°
2026-05-07 16:55 47.67353 17.27454 34965 ft 444 kts 152°
2026-05-07 16:55 47.62257 17.32644 34965 ft 445 kts 152°
2026-05-07 16:56 47.57137 17.37832 34964 ft 445 kts 152°
2026-05-07 16:56 47.49468 17.45581 34956 ft 444 kts 152°
2026-05-07 16:57 47.44362 17.50724 34963 ft 444 kts 152°
2026-05-07 16:57 47.39277 17.55835 34965 ft 443 kts 152°
2026-05-07 16:58 47.34162 17.60963 34968 ft 443 kts 152°
2026-05-07 16:58 47.29065 17.66061 34928 ft 442 kts 152°
2026-05-07 16:59 47.23980 17.71137 34957 ft 441 kts 152°
2026-05-07 16:59 47.18900 17.76194 34966 ft 441 kts 152°
2026-05-07 17:00 47.13843 17.81213 34984 ft 443 kts 152°
2026-05-07 17:00 47.08716 17.86293 34974 ft 445 kts 152°
2026-05-07 17:01 47.03574 17.91377 34983 ft 446 kts 152°
2026-05-07 17:01 46.98437 17.96445 34976 ft 446 kts 153°
2026-05-07 17:02 46.93373 18.01428 34979 ft 447 kts 153°
2026-05-07 17:02 46.88206 18.06503 34982 ft 447 kts 153°
2026-05-07 17:03 46.83031 18.11571 34983 ft 448 kts 153°
2026-05-07 17:03 46.77806 18.16488 34988 ft 447 kts 154°
2026-05-07 17:04 46.72534 18.21290 34982 ft 447 kts 154°
2026-05-07 17:04 46.67268 18.26085 34991 ft 450 kts 154°
2026-05-07 17:05 46.61949 18.30944 34997 ft 453 kts 154°
2026-05-07 17:05 46.56605 18.35825 34995 ft 455 kts 154°
2026-05-07 17:06 46.51236 18.40721 34989 ft 456 kts 154°
2026-05-07 17:06 46.45850 18.45620 34989 ft 457 kts 154°
2026-05-07 17:07 46.40446 18.50523 34994 ft 458 kts 154°
2026-05-07 17:07 46.35036 18.55419 34992 ft 459 kts 154°
2026-05-07 17:08 46.29624 18.60305 35005 ft 459 kts 154°
2026-05-07 17:08 46.24199 18.65192 34988 ft 459 kts 154°
2026-05-07 17:09 46.18779 18.70063 34995 ft 458 kts 154°
2026-05-07 17:09 46.13351 18.74929 35000 ft 459 kts 154°
2026-05-07 17:10 46.07927 18.79780 35003 ft 459 kts 154°
2026-05-07 17:10 46.02535 18.84593 35003 ft 459 kts 154°
2026-05-07 17:11 45.97137 18.89400 35000 ft 459 kts 154°
2026-05-07 17:11 45.91840 18.94586 34991 ft 466 kts 142°
2026-05-07 17:12 45.87276 19.00971 35000 ft 469 kts 140°
2026-05-07 17:12 45.82660 19.07590 34999 ft 469 kts 140°
2026-05-07 17:13 45.80069 19.11270 34997 ft 469 kts 140°
2026-05-07 17:13 45.75638 19.17497 35001 ft 469 kts 141°
2026-05-07 17:14 45.70992 19.23972 34993 ft 468 kts 140°
2026-05-07 17:14 45.66323 19.30456 34992 ft 468 kts 140°
2026-05-07 17:15 45.61649 19.36932 34998 ft 467 kts 140°
2026-05-07 17:15 45.56982 19.43384 34998 ft 467 kts 141°
2026-05-07 17:16 45.52313 19.49825 35000 ft 466 kts 141°
2026-05-07 17:16 45.47638 19.56259 34984 ft 466 kts 141°
2026-05-07 17:17 45.42967 19.62670 35000 ft 467 kts 141°
2026-05-07 17:17 45.38314 19.69042 34999 ft 468 kts 141°
2026-05-07 17:18 45.33611 19.75467 34990 ft 468 kts 140°
2026-05-07 17:18 45.28907 19.81878 34995 ft 468 kts 141°
2026-05-07 17:19 45.24206 19.88269 34995 ft 467 kts 141°
2026-05-07 17:19 45.19536 19.94603 34987 ft 467 kts 141°
2026-05-07 17:20 45.14951 20.00806 34983 ft 467 kts 140°
2026-05-07 17:20 45.10248 20.07154 34999 ft 467 kts 140°
2026-05-07 17:21 45.05546 20.13486 35002 ft 467 kts 140°
2026-05-07 17:21 45.00827 20.19825 34999 ft 468 kts 140°
2026-05-07 17:22 44.96134 20.26114 35004 ft 468 kts 140°
2026-05-07 17:22 44.91404 20.32439 35020 ft 468 kts 140°
2026-05-07 17:23 44.86664 20.38761 35030 ft 469 kts 140°
2026-05-07 17:23 44.81942 20.45044 35022 ft 469 kts 140°
2026-05-07 17:24 44.77189 20.51354 35024 ft 470 kts 140°
2026-05-07 17:24 44.72434 20.57651 35024 ft 469 kts 140°
2026-05-07 17:25 44.67677 20.63937 35031 ft 468 kts 140°
2026-05-07 17:25 44.63731 20.69140 35022 ft 468 kts 140°
2026-05-07 17:26 44.58206 20.76407 35026 ft 468 kts 140°
2026-05-07 17:26 44.53458 20.82636 35025 ft 468 kts 140°
2026-05-07 17:27 44.49500 20.87817 35021 ft 467 kts 140°
2026-05-07 17:27 44.44748 20.94024 35028 ft 467 kts 140°
2026-05-07 17:28 44.40044 21.00155 35027 ft 467 kts 140°
2026-05-07 17:28 44.35313 21.06307 35025 ft 468 kts 140°
2026-05-07 17:29 44.30540 21.12498 35025 ft 468 kts 140°
2026-05-07 17:29 44.25765 21.18679 35029 ft 469 kts 140°
2026-05-07 17:30 44.20971 21.24870 35032 ft 469 kts 140°
2026-05-07 17:30 44.16201 21.31015 35034 ft 469 kts 141°
2026-05-07 17:31 44.11405 21.37179 35017 ft 469 kts 141°
2026-05-07 17:31 44.06604 21.43334 35038 ft 469 kts 141°
2026-05-07 17:32 44.01791 21.49491 35045 ft 470 kts 141°
2026-05-07 17:32 43.97010 21.55595 35036 ft 471 kts 141°
2026-05-07 17:33 43.92182 21.61743 35044 ft 471 kts 141°
2026-05-07 17:33 43.87340 21.67895 35116 ft 474 kts 141°
2026-05-07 17:34 43.84897 21.70994 35270 ft 475 kts 141°
2026-05-07 17:34 43.82457 21.74085 35517 ft 475 kts 141°
2026-05-07 17:34 43.80024 21.77164 35767 ft 474 kts 141°
2026-05-07 17:34 43.77590 21.80241 36040 ft 473 kts 141°
2026-05-07 17:35 43.75152 21.83319 36228 ft 473 kts 141°
2026-05-07 17:35 43.72752 21.86345 36390 ft 475 kts 141°
2026-05-07 17:35 43.70308 21.89423 36589 ft 475 kts 141°
2026-05-07 17:35 43.67832 21.92539 36789 ft 476 kts 141°
2026-05-07 17:36 43.65419 21.95571 36998 ft 476 kts 142°
2026-05-07 17:36 43.62965 21.98651 37041 ft 479 kts 141°
2026-05-07 17:36 43.58127 22.04715 37038 ft 479 kts 142°
2026-05-07 17:37 43.53194 22.10883 37060 ft 478 kts 142°
2026-05-07 17:37 43.48250 22.17049 37055 ft 479 kts 142°
2026-05-07 17:38 43.43304 22.23205 37058 ft 480 kts 142°
2026-05-07 17:38 43.38352 22.29354 37055 ft 480 kts 142°
2026-05-07 17:39 43.33393 22.35497 37055 ft 480 kts 142°
2026-05-07 17:39 43.28434 22.41627 37066 ft 480 kts 142°
2026-05-07 17:40 43.23500 22.47711 37072 ft 480 kts 142°
2026-05-07 17:40 43.18530 22.53827 37086 ft 480 kts 142°
2026-05-07 17:41 43.13542 22.59950 37072 ft 481 kts 142°
2026-05-07 17:41 43.08554 22.66061 37093 ft 481 kts 142°
2026-05-07 17:42 43.03557 22.72169 37092 ft 481 kts 142°
2026-05-07 17:42 42.98572 22.78248 37086 ft 482 kts 142°
2026-05-07 17:43 42.93365 22.83838 37102 ft 478 kts 149°
2026-05-07 17:43 42.87868 22.88953 37095 ft 478 kts 150°
2026-05-07 17:44 42.82354 22.94050 37079 ft 479 kts 150°
2026-05-07 17:44 42.76866 22.99200 37097 ft 479 kts 150°
2026-05-07 17:45 42.71502 23.04270 37111 ft 480 kts 150°
2026-05-07 17:45 42.66019 23.09448 37106 ft 480 kts 150°
2026-05-07 17:46 42.60518 23.14631 37112 ft 481 kts 150°
2026-05-07 17:46 42.55012 23.19803 37102 ft 481 kts 150°
2026-05-07 17:47 42.49502 23.24967 37115 ft 482 kts 150°
2026-05-07 17:47 42.44012 23.30101 37104 ft 482 kts 150°
2026-05-07 17:48 42.38487 23.35257 37114 ft 482 kts 150°
2026-05-07 17:48 42.32962 23.40402 37125 ft 481 kts 150°
2026-05-07 17:49 42.27443 23.45530 37134 ft 481 kts 150°
2026-05-07 17:49 42.21924 23.50647 37123 ft 481 kts 150°
2026-05-07 17:50 42.16437 23.55723 37139 ft 481 kts 150°
2026-05-07 17:50 42.10911 23.60825 37091 ft 481 kts 150°
2026-05-07 17:51 42.05406 23.65897 37121 ft 479 kts 150°
2026-05-07 17:51 41.99963 23.70899 37130 ft 479 kts 150°
2026-05-07 17:52 41.94454 23.75952 37139 ft 479 kts 150°
2026-05-07 17:52 41.88934 23.81004 37126 ft 481 kts 150°
2026-05-07 17:53 41.83393 23.86065 37123 ft 482 kts 150°
2026-05-07 17:53 41.77835 23.91132 37126 ft 483 kts 150°
2026-05-07 17:54 41.72260 23.96203 37128 ft 485 kts 150°
2026-05-07 17:54 41.66802 24.01156 37126 ft 486 kts 150°
2026-05-07 17:55 41.61193 24.06239 37098 ft 487 kts 150°
2026-05-07 17:55 41.55579 24.11313 37122 ft 488 kts 150°
2026-05-07 17:56 41.49746 24.15879 37129 ft 484 kts 157°
2026-05-07 17:56 41.43785 24.19954 37101 ft 484 kts 158°
2026-05-07 17:57 41.38767 24.23382 37098 ft 484 kts 158°
2026-05-07 17:57 41.31800 24.28195 37109 ft 485 kts 158°
2026-05-07 17:58 41.25806 24.32380 37117 ft 487 kts 157°
2026-05-07 17:58 41.19807 24.36570 37108 ft 487 kts 157°
2026-05-07 17:59 41.13834 24.40731 37083 ft 489 kts 157°
2026-05-07 17:59 41.07800 24.44922 37095 ft 490 kts 157°
2026-05-07 18:00 41.01751 24.49113 37104 ft 491 kts 158°
2026-05-07 18:00 40.95740 24.53271 37108 ft 491 kts 158°
2026-05-07 18:01 40.89677 24.57456 37090 ft 491 kts 158°
2026-05-07 18:01 40.83616 24.61630 37105 ft 492 kts 158°
2026-05-07 18:02 40.74488 24.67907 37117 ft 494 kts 158°
2026-05-07 18:03 40.68372 24.72094 37058 ft 494 kts 158°
2026-05-07 18:03 40.62255 24.76274 37100 ft 498 kts 158°
2026-05-07 18:04 40.56056 24.80494 37101 ft 505 kts 158°
2026-05-07 18:04 40.49806 24.84751 37101 ft 507 kts 158°
2026-05-07 18:05 40.43568 24.88992 37068 ft 509 kts 158°
2026-05-07 18:05 40.37279 24.93258 37106 ft 511 kts 158°
2026-05-07 18:06 40.30940 24.97546 37115 ft 513 kts 158°
2026-05-07 18:06 40.24756 25.01721 37120 ft 514 kts 158°
2026-05-07 18:07 40.18448 25.05976 37088 ft 507 kts 158°
2026-05-07 18:07 40.12172 25.10195 37114 ft 508 kts 158°
2026-05-07 18:08 40.05877 25.14416 37109 ft 509 kts 158°
2026-05-07 18:08 39.99621 25.18606 37107 ft 510 kts 158°
2026-05-07 18:09 39.93295 25.22863 37100 ft 513 kts 155°
2026-05-07 18:09 39.87510 25.28435 37118 ft 521 kts 142°
2026-05-07 18:10 39.82053 25.34701 37125 ft 522 kts 142°
2026-05-07 18:10 39.76629 25.40896 37107 ft 521 kts 142°
2026-05-07 18:11 39.71148 25.47046 37095 ft 520 kts 142°
2026-05-07 18:11 39.65669 25.53140 37113 ft 518 kts 143°
2026-05-07 18:12 39.60186 25.59223 37112 ft 518 kts 143°
2026-05-07 18:12 39.54705 25.65297 37133 ft 518 kts 142°
2026-05-07 18:13 39.49232 25.71351 37118 ft 518 kts 142°
2026-05-07 18:13 39.43779 25.77371 37118 ft 517 kts 142°
2026-05-07 18:14 39.38304 25.83404 37114 ft 517 kts 142°
2026-05-07 18:14 39.32821 25.89431 37129 ft 518 kts 142°
2026-05-07 18:15 39.27321 25.95462 37129 ft 519 kts 142°
2026-05-07 18:15 39.22839 26.00370 37126 ft 520 kts 142°
2026-05-07 18:16 39.17352 26.06365 37127 ft 520 kts 142°
2026-05-07 18:16 39.11812 26.12408 37113 ft 520 kts 142°
2026-05-07 18:17 39.06286 26.18420 37126 ft 520 kts 142°
2026-05-07 18:17 39.00745 26.24436 37131 ft 521 kts 142°
2026-05-07 18:18 38.95216 26.30428 37141 ft 522 kts 142°
2026-05-07 18:18 38.89698 26.36397 37128 ft 521 kts 142°
2026-05-07 18:19 38.84699 26.43100 37125 ft 522 kts 121°
2026-05-07 18:19 38.83052 26.47231 37135 ft 520 kts 108°
2026-05-07 18:19 38.82069 26.51675 37119 ft 514 kts 95°
2026-05-07 18:20 38.81078 26.60739 37138 ft 513 kts 94°
2026-05-07 18:20 38.80055 26.69760 37125 ft 514 kts 95°
2026-05-07 18:21 38.78934 26.78821 37121 ft 515 kts 96°
2026-05-07 18:21 38.77795 26.87885 37127 ft 514 kts 96°
2026-05-07 18:21 38.77003 26.92336 37105 ft 513 kts 109°
2026-05-07 18:22 38.75422 26.96404 37139 ft 509 kts 124°
2026-05-07 18:22 38.70649 27.02664 37126 ft 503 kts 146°
2026-05-07 18:23 38.64906 27.07946 37138 ft 512 kts 147°
2026-05-07 18:23 38.59091 27.13292 37138 ft 517 kts 146°
2026-05-07 18:24 38.53276 27.18735 37148 ft 517 kts 146°
2026-05-07 18:24 38.47599 27.24092 37117 ft 504 kts 146°
2026-05-07 18:25 38.41951 27.29413 37126 ft 506 kts 146°
2026-05-07 18:25 38.36258 27.34757 37127 ft 510 kts 146°
2026-05-07 18:26 38.30523 27.40126 37148 ft 512 kts 146°
2026-05-07 18:26 38.24792 27.45482 37140 ft 516 kts 146°
2026-05-07 18:27 38.18999 27.50885 37147 ft 513 kts 146°
2026-05-07 18:27 38.13269 27.56222 37131 ft 509 kts 146°
2026-05-07 18:28 38.07533 27.61550 37151 ft 511 kts 146°
2026-05-07 18:28 38.01786 27.66876 37137 ft 513 kts 146°
2026-05-07 18:29 37.96057 27.72176 37136 ft 514 kts 146°
2026-05-07 18:29 37.90275 27.77517 37134 ft 514 kts 146°
2026-05-07 18:30 37.84483 27.82856 37127 ft 516 kts 146°
2026-05-07 18:30 37.78680 27.88193 37140 ft 516 kts 146°
2026-05-07 18:31 37.72860 27.93537 37136 ft 518 kts 146°
2026-05-07 18:31 37.67018 27.98890 37138 ft 518 kts 146°
2026-05-07 18:32 37.61304 28.04114 37119 ft 518 kts 146°
2026-05-07 18:32 37.55468 28.09440 37163 ft 519 kts 146°
2026-05-07 18:33 37.49619 28.14767 37143 ft 518 kts 146°
2026-05-07 18:33 37.43789 28.20067 37154 ft 517 kts 146°
2026-05-07 18:34 37.37989 28.25328 37157 ft 516 kts 146°
2026-05-07 18:34 37.32164 28.30603 37147 ft 516 kts 146°
2026-05-07 18:35 37.26348 28.35858 37172 ft 515 kts 146°
2026-05-07 18:35 37.20524 28.41111 37169 ft 515 kts 146°
2026-05-07 18:36 37.14701 28.46353 37163 ft 515 kts 146°
2026-05-07 18:36 37.08885 28.51579 37161 ft 514 kts 146°
2026-05-07 18:37 37.03070 28.56793 37174 ft 513 kts 146°
2026-05-07 18:37 36.97269 28.61985 37161 ft 513 kts 146°
2026-05-07 18:38 36.91471 28.67165 37189 ft 512 kts 146°
2026-05-07 18:38 36.85711 28.72300 37174 ft 511 kts 146°
2026-05-07 18:39 36.79918 28.77455 37183 ft 510 kts 146°
2026-05-07 18:39 36.74138 28.82588 37187 ft 509 kts 146°
2026-05-07 18:40 36.68355 28.87716 37184 ft 510 kts 146°
2026-05-07 18:40 36.62574 28.92832 37182 ft 511 kts 146°
2026-05-07 18:41 36.56771 28.97957 37187 ft 511 kts 146°
2026-05-07 18:41 36.51114 29.02944 37134 ft 511 kts 146°
2026-05-07 18:42 36.45314 29.08048 37142 ft 511 kts 146°
2026-05-07 18:42 36.39501 29.13154 37155 ft 512 kts 146°
2026-05-07 18:43 36.33673 29.18264 37146 ft 512 kts 146°
2026-05-07 18:43 36.27845 29.23366 37152 ft 513 kts 146°
2026-05-07 18:44 36.22018 29.28459 37128 ft 513 kts 145°
2026-05-07 18:44 36.16875 29.34462 37149 ft 513 kts 127°
2026-05-07 18:45 36.12993 29.41828 37151 ft 511 kts 120°
2026-05-07 18:45 36.09286 29.49331 37143 ft 511 kts 120°
2026-05-07 18:46 36.05523 29.56793 37164 ft 511 kts 121°
2026-05-07 18:46 36.01724 29.64219 37139 ft 511 kts 121°
2026-05-07 18:47 35.97923 29.71619 37131 ft 509 kts 121°
2026-05-07 18:47 35.94125 29.79008 37142 ft 508 kts 121°
2026-05-07 18:48 35.90362 29.86320 37152 ft 507 kts 121°
2026-05-07 18:48 35.86583 29.93648 37128 ft 505 kts 121°
2026-05-07 18:49 35.83082 30.00968 37129 ft 502 kts 112°
2026-05-07 18:49 35.80889 30.09065 37124 ft 497 kts 103°
2026-05-07 18:50 35.78937 30.17214 37138 ft 496 kts 104°
2026-05-07 18:50 35.76933 30.25341 37127 ft 496 kts 104°
2026-05-07 18:51 35.74887 30.33451 37135 ft 495 kts 104°
2026-05-07 18:51 35.72830 30.41546 37137 ft 496 kts 104°
2026-05-07 18:52 35.70767 30.49646 37127 ft 496 kts 104°
2026-05-07 18:52 35.68713 30.57692 37139 ft 497 kts 104°
2026-05-07 18:53 35.66637 30.65808 37132 ft 497 kts 104°
2026-05-07 18:53 35.64552 30.73929 37135 ft 498 kts 105°
2026-05-07 18:53 35.63506 30.77997 36935 ft 500 kts 105°
2026-05-07 18:54 35.62459 30.82059 37008 ft 495 kts 105°
2026-05-07 18:54 35.61420 30.86081 37117 ft 493 kts 104°
2026-05-07 18:54 35.60392 30.90114 37131 ft 496 kts 104°
2026-05-07 18:55 35.58347 30.98204 37157 ft 500 kts 104°
2026-05-07 18:55 35.56311 31.06250 37141 ft 502 kts 104°
2026-05-07 18:56 35.54227 31.14437 37045 ft 503 kts 104°
2026-05-07 18:56 35.53180 31.18539 36753 ft 501 kts 105°
2026-05-07 18:56 35.52140 31.22600 36494 ft 496 kts 105°
2026-05-07 18:56 35.51121 31.26572 36253 ft 493 kts 105°
2026-05-07 18:57 35.50088 31.30598 36006 ft 494 kts 105°
2026-05-07 18:57 35.49055 31.34616 35757 ft 495 kts 105°
2026-05-07 18:57 35.48016 31.38657 35512 ft 495 kts 105°
2026-05-07 18:57 35.46980 31.42676 35269 ft 495 kts 105°
2026-05-07 18:58 35.45940 31.46703 35024 ft 495 kts 105°
2026-05-07 18:58 35.44898 31.50734 34787 ft 495 kts 105°
2026-05-07 18:58 35.43858 31.54749 34562 ft 495 kts 105°
2026-05-07 18:58 35.42813 31.58777 34322 ft 495 kts 105°
2026-05-07 18:59 35.41769 31.62798 34075 ft 494 kts 105°
2026-05-07 18:59 35.40723 31.66816 33806 ft 494 kts 105°
2026-05-07 18:59 35.39677 31.70832 33539 ft 494 kts 105°
2026-05-07 18:59 35.38630 31.74841 33275 ft 494 kts 105°
2026-05-07 19:00 35.37595 31.78804 33014 ft 494 kts 105°
2026-05-07 19:00 35.36542 31.82824 32759 ft 495 kts 105°
2026-05-07 19:00 35.35491 31.86835 32497 ft 495 kts 105°
2026-05-07 19:00 35.34437 31.90851 32248 ft 495 kts 105°
2026-05-07 19:01 35.33381 31.94870 31996 ft 496 kts 105°
2026-05-07 19:01 35.32324 31.98883 31748 ft 496 kts 105°
2026-05-07 19:01 35.31307 32.02742 31095 ft 496 kts 105°
2026-05-07 19:01 35.30243 32.06775 30345 ft 497 kts 105°
2026-05-07 19:02 35.29189 32.10790 29534 ft 496 kts 104°
2026-05-07 19:02 35.28140 32.14808 28640 ft 496 kts 104°
2026-05-07 19:02 35.27091 32.18832 27723 ft 496 kts 104°
2026-05-07 19:02 35.26394 32.21503 27101 ft 496 kts 105°
2026-05-07 19:03 35.25339 32.25541 26118 ft 498 kts 105°
2026-05-07 19:03 35.24284 32.29570 25397 ft 494 kts 105°
2026-05-07 19:03 35.23238 32.33548 24711 ft 489 kts 105°
2026-05-07 19:03 35.22198 32.37496 24011 ft 486 kts 105°
2026-05-07 19:04 35.21164 32.41420 23222 ft 483 kts 105°
2026-05-07 19:04 35.20139 32.45304 22467 ft 478 kts 105°
2026-05-07 19:04 35.19121 32.49155 21754 ft 473 kts 105°
2026-05-07 19:04 35.18114 32.52959 21058 ft 467 kts 106°
2026-05-07 19:05 35.17117 32.56721 20380 ft 463 kts 106°
2026-05-07 19:05 35.16128 32.60449 19716 ft 459 kts 106°
2026-05-07 19:05 35.15147 32.64138 19039 ft 455 kts 106°
2026-05-07 19:05 35.14184 32.67759 18352 ft 452 kts 106°
2026-05-07 19:06 35.13213 32.71405 17594 ft 448 kts 106°
2026-05-07 19:06 35.11303 32.78559 16244 ft 438 kts 107°
2026-05-07 19:06 35.10362 32.82079 15570 ft 433 kts 107°
2026-05-07 19:07 35.09434 32.85545 15002 ft 425 kts 107°
2026-05-07 19:07 35.08518 32.88962 14363 ft 421 kts 107°
2026-05-07 19:07 35.07614 32.92326 13702 ft 416 kts 107°
2026-05-07 19:07 35.06706 32.95643 13263 ft 406 kts 108°
2026-05-07 19:08 35.05788 32.98847 12761 ft 398 kts 108°
2026-05-07 19:08 35.04902 33.01897 12433 ft 390 kts 109°
2026-05-07 19:08 35.04006 33.04983 12299 ft 384 kts 108°
2026-05-07 19:08 35.03127 33.08022 12176 ft 374 kts 108°
2026-05-07 19:09 35.02287 33.10935 12120 ft 350 kts 108°
2026-05-07 19:09 35.01508 33.13631 12110 ft 326 kts 108°
2026-05-07 19:09 35.00781 33.16147 12115 ft 312 kts 107°
2026-05-07 19:09 35.00067 33.18623 11713 ft 312 kts 107°
2026-05-07 19:10 34.99335 33.21166 11014 ft 324 kts 108°
2026-05-07 19:10 34.98589 33.23749 10801 ft 317 kts 108°
2026-05-07 19:10 34.97869 33.26239 10722 ft 306 kts 107°
2026-05-07 19:10 34.97171 33.28647 10641 ft 296 kts 108°
2026-05-07 19:11 34.96498 33.30966 10569 ft 286 kts 108°
2026-05-07 19:11 34.95843 33.33224 10415 ft 281 kts 108°
2026-05-07 19:11 34.95194 33.35461 10162 ft 279 kts 107°
2026-05-07 19:11 34.94548 33.37684 9875 ft 278 kts 108°
2026-05-07 19:12 34.93902 33.39900 9603 ft 276 kts 108°
2026-05-07 19:12 34.93260 33.42104 9327 ft 275 kts 108°
2026-05-07 19:12 34.92622 33.44295 9041 ft 273 kts 106°
2026-05-07 19:12 34.91987 33.46471 8759 ft 272 kts 107°
2026-05-07 19:13 34.91356 33.48635 8473 ft 270 kts 107°
2026-05-07 19:13 34.90734 33.50765 8210 ft 269 kts 107°
2026-05-07 19:13 34.90109 33.52908 7953 ft 268 kts 107°
2026-05-07 19:13 34.89486 33.55037 7698 ft 266 kts 106°
2026-05-07 19:14 34.88866 33.57156 7431 ft 265 kts 106°
2026-05-07 19:14 34.88247 33.59269 7175 ft 263 kts 106°
2026-05-07 19:14 34.87855 33.61409 6899 ft 256 kts 84°
2026-05-07 19:14 34.88323 33.63427 6803 ft 240 kts 60°
2026-05-07 19:15 34.89177 33.65095 6706 ft 225 kts 60°
2026-05-07 19:15 34.89671 33.66867 6511 ft 219 kts 71°
2026-05-07 19:15 34.90092 33.68642 6164 ft 217 kts 71°
2026-05-07 19:15 34.90488 33.70380 5817 ft 215 kts 77°
2026-05-07 19:16 34.90708 33.72190 5474 ft 212 kts 80°
2026-05-07 19:16 34.90893 33.73933 5132 ft 209 kts 80°
2026-05-07 19:16 34.91073 33.75680 4777 ft 207 kts 80°
2026-05-07 19:16 34.91404 33.77339 4381 ft 197 kts 59°
2026-05-07 19:17 34.92142 33.78694 4075 ft 188 kts 54°
2026-05-07 19:17 34.92846 33.80013 3712 ft 184 kts 55°
2026-05-07 19:17 34.93526 33.81318 3363 ft 181 kts 55°
2026-05-07 19:17 34.94187 33.82608 3000 ft 178 kts 55°
2026-05-07 19:18 34.94860 33.83862 2642 ft 174 kts 44°
2026-05-07 19:18 34.95899 33.84385 2260 ft 164 kts 351°
2026-05-07 19:18 34.96858 33.83696 1971 ft 164 kts 317°
2026-05-07 19:18 34.97518 33.82563 1662 ft 166 kts 287°
2026-05-07 19:19 34.97514 33.81184 1557 ft 171 kts 257°
2026-05-07 19:19 34.97073 33.79832 1526 ft 170 kts 252°
2026-05-07 19:19 34.96646 33.78528 1499 ft 161 kts 252°
2026-05-07 19:19 34.96233 33.77272 1503 ft 160 kts 252°
2026-05-07 19:20 34.95811 33.75996 1503 ft 163 kts 252°
2026-05-07 19:20 34.95387 33.74719 1487 ft 163 kts 252°
2026-05-07 19:20 34.94961 33.73438 1503 ft 163 kts 252°
2026-05-07 19:20 34.94534 33.72156 1488 ft 163 kts 252°
2026-05-07 19:21 34.94109 33.70904 1512 ft 159 kts 249°
2026-05-07 19:21 34.93446 33.69813 1391 ft 166 kts 231°
2026-05-07 19:21 34.92634 33.68812 1182 ft 165 kts 229°
2026-05-07 19:21 34.91842 33.67850 988 ft 156 kts 228°
2026-05-07 19:22 34.91097 33.66941 799 ft 148 kts 228°
2026-05-07 19:22 34.90346 33.66028 672 ft 156 kts 228°
2026-05-07 19:22 34.89570 33.65087 425 ft 159 kts 229°
2026-05-07 19:22 34.88776 33.64118 263 ft 164 kts 228°
2026-05-07 19:23 34.87976 33.63130 34 ft 159 kts 229°
2026-05-07 19:23 34.87260 33.62253 17 ft 130 kts 225°
2026-05-07 19:23 34.86737 33.61615 16 ft 65 kts 225°
2026-05-07 19:23 34.86627 33.61390 17 ft 4 kts 317°
2026-05-07 19:24 34.86631 33.61386 17 ft 1 kts 319°
2026-05-07 19:24 34.86636 33.61381 17 ft 2 kts 319°
2026-05-07 19:24 34.86660 33.61355 18 ft 9 kts 316°
2026-05-07 19:24 34.86725 33.61288 18 ft 15 kts 337°
2026-05-07 19:25 34.86813 33.61344 16 ft 15 kts 47°
2026-05-07 19:25 34.86893 33.61368 17 ft 11 kts 322°
2026-05-07 19:25 34.86948 33.61305 19 ft 11 kts 315°
2026-05-07 19:25 34.86999 33.61241 19 ft 10 kts 315°
2026-05-07 19:26 34.87051 33.61181 19 ft 10 kts 315°
2026-05-07 19:26 34.87100 33.61122 19 ft 10 kts 315°
2026-05-07 19:26 34.87118 33.61079 19 ft 5 kts 263°
2026-05-07 19:26 34.87097 33.61042 20 ft 5 kts 224°
2026-05-07 19:27 34.87082 33.61024 19 ft 2 kts 225°
2026-05-07 19:27 34.87078 33.61019 19 ft 0 kts 225°
2026-05-07 19:33 34.87079 33.61019 19 ft 0 kts 225°